TimeMDT,TemperatureF,Dew PointF,Humidity,Sea Level PressureIn,VisibilityMPH,Wind Direction,Wind SpeedMPH,Gust SpeedMPH,PrecipitationIn,Events,Conditions,WindDirDegrees,DateUTC
12:53 AM,42.1,28.9,60,30.17,10.0,SE,3.5,-,N/A,,Clear,140,2013-03-14 06:53:00
1:53 AM,39.0,28.9,67,30.18,10.0,ESE,5.8,-,N/A,,Clear,120,2013-03-14 07:53:00
2:53 AM,39.0,30.0,70,30.18,10.0,SE,3.5,-,N/A,,Clear,130,2013-03-14 08:53:00
3:53 AM,37.9,28.9,70,30.17,10.0,Calm,Calm,-,N/A,,Clear,0,2013-03-14 09:53:00
4:53 AM,35.1,28.9,78,30.18,10.0,East,4.6,-,N/A,,Clear,90,2013-03-14 10:53:00
5:53 AM,34.0,28.0,79,30.18,10.0,ESE,6.9,-,N/A,,Clear,120,2013-03-14 11:53:00
6:53 AM,33.1,28.0,82,30.21,10.0,Calm,Calm,-,N/A,,Clear,0,2013-03-14 12:53:00
7:53 AM,33.1,28.0,82,30.23,10.0,SSE,3.5,-,N/A,,Clear,150,2013-03-14 13:53:00
8:53 AM,35.1,28.9,78,30.22,10.0,Calm,Calm,-,N/A,,Clear,0,2013-03-14 14:53:00
9:53 AM,43.0,30.0,60,30.22,10.0,Calm,Calm,-,N/A,,Clear,0,2013-03-14 15:53:00
10:53 AM,48.0,30.9,52,30.18,10.0,Calm,Calm,-,N/A,,Clear,0,2013-03-14 16:53:00
11:53 AM,55.9,30.0,37,30.15,10.0,Variable,5.8,-,N/A,,Clear,0,2013-03-14 17:53:00
12:53 PM,61.0,28.9,30,30.13,10.0,South,6.9,-,N/A,,Clear,180,2013-03-14 18:53:00
1:53 PM,64.9,28.0,25,30.09,10.0,SSE,6.9,-,N/A,,Clear,150,2013-03-14 19:53:00
2:53 PM,66.0,26.1,22,30.06,10.0,SSE,6.9,-,N/A,,Clear,150,2013-03-14 20:53:00
3:53 PM,66.9,25.0,21,30.05,10.0,SSE,5.8,-,N/A,,Clear,150,2013-03-14 21:53:00
4:53 PM,66.0,27.0,23,30.05,10.0,Calm,Calm,-,N/A,,Clear,0,2013-03-14 22:53:00
5:53 PM,66.0,26.1,22,30.04,10.0,ESE,5.8,-,N/A,,Clear,110,2013-03-14 23:53:00
6:53 PM,63.0,27.0,26,30.04,10.0,ESE,4.6,-,N/A,,Clear,110,2013-03-15 00:53:00
7:53 PM,57.9,30.0,35,30.04,10.0,SSE,3.5,-,N/A,,Partly Cloudy,150,2013-03-15 01:53:00
8:53 PM,53.1,30.9,43,30.02,10.0,East,5.8,-,N/A,,Clear,90,2013-03-15 02:53:00
9:53 PM,52.0,30.9,45,30.00,10.0,Calm,Calm,-,N/A,,Clear,0,2013-03-15 03:53:00
10:53 PM,50.0,30.9,48,29.99,10.0,ESE,3.5,-,N/A,,Clear,110,2013-03-15 04:53:00
11:53 PM,48.9,30.9,50,29.95,10.0,ESE,3.5,-,N/A,,Clear,110,2013-03-15 05:53:00